Printer-friendly version

IAU Minor Planet Center

Minor Planet Center

MPEC 2006-B58 : 2006 BN26

The following Minor Planet Electronic Circular may be linked-to from your own Web pages, but must not otherwise be redistributed electronically.


Read MPEC 2006-B57 Read MPEC 2006-B59


M.P.E.C. 2006-B58                                Issued 2006 Jan. 26, 00:01 UT

     The Minor Planet Electronic Circulars contain information on unusual
         minor planets and routine data on comets.  They are published
   on behalf of Commission 20 of the International Astronomical Union by the
          Minor Planet Center, Smithsonian Astrophysical Observatory,
                          Cambridge, MA 02138, U.S.A.

                  Supported in part by the Brinson Foundation
                  Supported in part by the TABASGO Foundation
             Prepared using the Tamkin Foundation Computer Network

                              MPC@CFA.HARVARD.EDU
          URL http://cfa-www.harvard.edu/iau/mpc.html  ISSN 1523-6714

                                   2006 BN26

Observations:
     K06B26N  C2006 01 25.28691 08 21 30.70 +02 35 53.9          19.0 V EB058703
     K06B26N  C2006 01 25.29169 08 21 32.22 +02 36 06.1          19.0 V EB058703
     K06B26N  C2006 01 25.29647 08 21 33.91 +02 36 17.3          19.3 V EB058703
     K06B26N  C2006 01 25.30125 08 21 35.56 +02 36 29.6          18.8 V EB058703
     K06B26N* C2006 01 25.30391 08 21 36.65 +02 36 30.0          18.8 R EB058699
     K06B26N  C2006 01 25.32855 08 21 45.15 +02 37 29.6                 EB058699
     K06B26N  C2006 01 25.35323 08 21 53.59 +02 38 28.6                 EB058699
     K06B26N  C2006 01 25.37791 08 22 02.22 +02 39 26.5                 EB058699
     K06B26N  C2006 01 25.60543 08 23 27.82 +02 50 35.2          18.6 R EB058474
     K06B26N  C2006 01 25.61215 08 23 30.10 +02 50 50.8          18.6 R EB058474
     K06B26N  C2006 01 25.61424 08 23 30.80 +02 50 55.5          18.6 R EB058474
     K06B26N  C2006 01 25.95586 08 25 39.21 +03 01 28.3                 EB058J95
     K06B26N  C2006 01 25.96047 08 25 40.74 +03 01 39.2                 EB058J95
     K06B26N  C2006 01 25.96507 08 25 42.28 +03 01 49.9          19.3 R EB058J95

Observer details:
474 Mount John Observatory, Lake Tekapo.  Observer A. C. Gilmore.  0.6-m f/6.4
    reflector + CCD.
699 Lowell Observatory-LONEOS.  Observer B. A. Skiff.  0.59-m LONEOS Schmidt
    + CCD.
703 Catalina Sky Survey.  Observers R. A. Kowalski, C. Kjaernet.  Measurers
    E. C. Beshore, E. J. Christensen, G. J. Garradd, A. D. Grauer, R. E. Hill,
    R. A. Kowalski, S. M. Larson, R. H. McNaught.  0.68-m Schmidt + CCD.
J95 Great Shefford.  Observer P. Birtwhistle.  0.40-m f/6.0 Schmidt-Cassegrain
    + CCD.

Orbital elements:
2006 BN26                                                Earth MOID = 0.0234 AU
Epoch 2006 Mar. 6.0 TT = JDT 2453800.5                  MPC
M  25.55718              (2000.0)            P               Q
n   0.34347195     Peri.  261.19380     +0.10453603     -0.99452028
a   2.0193357      Node   182.80672     +0.92242245     +0.09743862
e   0.5173391      Incl.    1.49784     +0.37176477     +0.03788317
P   2.87           H   23.4           G   0.15           U   8
Residuals in seconds of arc
060125 703  1.3+  0.3-    060125 699  0.3+  0.3-    060125 474  0.0   0.1-
060125 703  0.8-  0.4+    060125 699  1.3-  0.3-    060125 J95  0.1-  0.4-
060125 703  0.3-  0.1+    060125 699  0.3-  1.1-    060125 J95  0.1-  0.1+
060125 703  0.4-  0.9+    060125 474  0.7+  0.0     060125 J95  0.1+  0.3+
060125 699  1.0+  0.8-    060125 474  0.3+  0.0

Ephemeris:
2006 BN26                a,e,i = 2.02, 0.52, 1                   q = 0.9747
Date    TT    R. A. (2000) Decl.     Delta      r     Elong.  Phase     V
2006 01 25    08 19.62   +02 25.1    0.0819   1.063   163.2    15.5    19.0
2006 01 27    08 31.53   +03 40.3    0.0911   1.073   165.0    13.7    19.1
2006 01 29    08 41.25   +04 43.6    0.101    1.083   166.6    12.1    19.3
2006 01 31    08 49.28   +05 37.5    0.111    1.094   168.1    10.7    19.5
2006 02 02    08 56.01   +06 24.1    0.121    1.105   169.4     9.5    19.7
2006 02 04    09 01.69   +07 04.6    0.132    1.116   170.5     8.4    19.8
2006 02 06    09 06.56   +07 40.2    0.143    1.127   171.5     7.4    20.0
2006 02 08    09 10.77   +08 11.7    0.154    1.139   172.2     6.8    20.1
2006 02 10    09 14.44   +08 39.7    0.166    1.151   172.5     6.4    20.3
2006 02 12    09 17.68   +09 04.6    0.178    1.164   172.5     6.4    20.5
2006 02 14    09 20.57   +09 27.0    0.190    1.176   172.0     6.7    20.7
2006 02 16    09 23.17   +09 47.0    0.203    1.189   171.2     7.3    20.8
2006 02 18    09 25.54   +10 05.0    0.216    1.202   170.2     8.1    21.0
2006 02 20    09 27.72   +10 21.1    0.230    1.215   168.9     9.0    21.2
2006 02 22    09 29.75   +10 35.5    0.244    1.229   167.6    10.0    21.4
2006 02 24    09 31.67   +10 48.3    0.258    1.242   166.1    11.0    21.6
2006 02 26    09 33.51   +10 59.5    0.273    1.256   164.6    12.1    21.8
2006 02 28    09 35.28   +11 09.4    0.289    1.270   163.0    13.2    22.0
2006 03 02    09 37.02   +11 17.9    0.305    1.284   161.4    14.2    22.2
2006 03 04    09 38.73   +11 25.1    0.321    1.298   159.8    15.3    22.3
2006 03 06    09 40.44   +11 31.0    0.338    1.312   158.2    16.3    22.5

Timothy B. Spahr             (C) Copyright 2006 MPC           M.P.E.C. 2006-B58

Read MPEC 2006-B57 Read MPEC 2006-B59


Our Web policy. Index to the CBAT/MPC/ICQ pages.


Valid HTML 4.01!